Regional Weather Roundup
Issued by NWS Charleston, SC

Current Version | Previous Version | Text Only | Print | Product List | Glossary Off
Versions: 1 2 3 4 5 6 7 8 9 10 11 12 13 14 15 16 17 18 19 20 21 22 23 24 25 26 27 28 29 30 31 32 33 34 35 36 37 38 39 40 41 42 43 44 45 46 47 48 49 50
000 ASUS42 KCHS 221110 RWRCHS REGIONAL WEATHER ROUNDUP NATIONAL WEATHER SERVICE CHARLESTON SC 600 AM EST WED FEB 22 2017 NOTE: "FAIR" INDICATES FEW OR NO CLOUDS BELOW 12,000 FEET WITH NO SIGNIFICANT WEATHER AND/OR OBSTRUCTIONS TO VISIBILITY. NOT ALL STATIONS ARE QUALITY CONTROLLED. USE DATA WITH CAUTION... ESPECIALLY DEWPOINT OBSERVATIONS. SCZ027-030-031-034>040-042>050-221200- ...SOUTHEAST SOUTH CAROLINA... CITY SKY/WX TMP DP RH WIND PRES REMARKS N CHARLESTON LGT RAIN 62 58 86 E10 29.95F WATERFRONT PRK N/A 61 61 100 E7 29.94F MOUNT PLEASANT PTSUNNY 61 59 94 CALM 29.96S JOHNS ISLAND FAIR 63 61 94 E6 29.95S PINOPOLIS N/A 59 57 94 CALM 29.87F MONCKS CORNER PTSUNNY 57 55 94 E5 29.96S SUMMERVILLE FAIR 59 55 88 E6 29.95F BEAUFORT MCAS CLOUDY 64 60 87 SE5 29.95R BEAUFORT ARPT CLOUDY 63 59 88 SW3 29.95R HILTON HEAD IS NOT AVBL WALTERBORO CLOUDY 55 55 100 CALM 29.96R ALLENDALE PTSUNNY 61 57 88 CALM 29.92S ...SOUTHERN MIDLANDS AND PEE DEE... CITY SKY/WX TMP DP RH WIND PRES REMARKS GEORGETOWN FAIR 54 54 100 CALM 29.99F KINGSTREE FAIR 50 48 93 CALM 29.97F ORANGEBURG MOCLDY 55 54 96 CALM 29.95R BARNWELL CLOUDY 61 59 94 CALM 29.94S AIKEN FAIR 55 54 94 CALM 29.98S MANNING FAIR 54 46 76 MISG 29.97S COLUMBIA MOCLDY 59 54 83 E5 29.96R SUMTER CLOUDY 54 53 94 E6 29.95S FLORENCE PTCLDY 49 49 100 E5 29.99S MYRTLE BEACH CLEAR 61 55 82 SE9 30.02 N MYRTLE BEACH MOCLDY 62 55 77 SE8 30.00S $$ GAZ063-065-086>088-099>101-113>116-118-119-134>141-150-221200- ...SOUTHEAST GEORGIA... CITY SKY/WX TMP DP RH WIND PRES REMARKS SAVANNAH ARPT CLOUDY 63 59 87 E13 29.91S HUNTER AAF CLOUDY 63 63 100 E8 29.88S FORT STEWART CLOUDY 63 60 91 E6 29.87S STATESBORO CLOUDY 62 62 100 CALM 29.91S SYLVANIA MOSUNNY N/A N/A N/A E6 29.92S CLAXTON FAIR N/A N/A N/A NE6 29.90S ...CSRA...CENTRAL AND FAR SOUTHEAST GEORGIA... CITY SKY/WX TMP DP RH WIND PRES REMARKS THOMSON CLOUDY 62 62 100 E6 29.97S AUGUSTA-BUSH CLOUDY 60 59 96 NE6 29.92F FOG AUGUSTA-DANIEL CLOUDY 61 56 83 E7 29.94S SWAINSBORO FAIR 61 61 100 E7 29.91R VIDALIA CLOUDY 63 63 100 E7 29.89R EASTMAN CLOUDY 65 64 96 E6 29.89S HAZLEHURST FAIR 65 64 96 E6 29.86S ALMA CLOUDY 64 61 90 E6 29.86S WAYCROSS CLOUDY 67 67 99 E8 29.85S JESUP LGT RAIN 64 59 82 CALM 29.89R BAXLEY CLOUDY 64 64 100 CALM 29.87S BRUNSWICK CLOUDY 68 63 83 SE3 29.88S SAINT SIMONS CLOUDY 66 61 84 E3 29.87S $$ SCZ027-028-034-036>038-045-046-048>050-GAZ119-141-221200- ...LAKE AND SUPPLEMENTAL COASTAL OBSERVATIONS... STATION/POSITION TIME TEMP WIND PRES WAVE SWELL AIR SEA DIR/SP/G HT/PER HT/PER/DIR (UTC) (F) (DEG/KT/KT) (MB) (FT/S) (FT/S/D) WINYAH BAY NOT AVBL LAKE MURRAY 1020 59 CALM 1014.2 ACE BASIN NERRS NOT AVBL FORT PULASKI 1036 63 61 90/ 12/ 13 1013.1F SAPELO ISLAND 1000 65 100/ 5 1012.0 $$ ANZ835-935-AMZ111-154-330-350-352-354-370-450-454-472-221200- ...C-MAN AND BUOY OBSERVATIONS... STATION/POSITION TIME TEMP WIND PRES WAVE SWELL AIR SEA DIR/SP/G HT/PER HT/PER/DIR (UTC) (F) (DEG/KT/KT) (MB) (FT/S) (FT/S/D) BUOY 41004 0950 69 69 120/ 17/ 19 1013.9 4/ 6 2/ 80/ 9 BUOY 41008 0950 65 62 90/ 8/ 10 1011.6 4/ 6 3/120/ 6 FOLLY BEACH CMAN 1000 62 80/ 9/ 11 1014.8F CAPERS NEARSHORE 1008 60 59 60/ 8/ 10 1014.3 FRIPP NEARSHORE 1008 63 60 100/ 10/ 14 1013.0R STATION/POSITION TIME TEMP WIND PRES WAVE SWELL AIR SEA DIR/SP/G HT/PER HT/PER/DIR (UTC) (F) (DEG/KT/KT) (MB) (FT/S) (FT/S/D) 5E ST. MARYS GA 1030 64 N/A 4/ 6 FRYING PAN BUOY 1050 67 69 170/ 8/ 10 1016.0F 3/ 7 3/ 70/ 7 BUOY 41025 1050 64 74 150/ 8/ 12 1018.1F 4/ 8 3/ 60/ 8 CAPE LOOKOUT NC 1000 60 120/ 3/ 3 1017.2R BUOY 41002 1050 64 71 90/ 12/ 16 1017.2R 4/ 8 3/ 20/ 8 BUOY 41010 NOT AVBL ST AUGUSTINE FL 1100 68 67 110/ 6/ 7 1011.1F $$

USA.gov is the U.S. government's official web portal to all federal, state and local government web resources and services.